Miscellaneous Local Product
Issued by NWS Hastings, NE

Home | Current Version | Previous Version | Graphics & Text | Print | Product List | Glossary On
Versions: 1 2 3 4 5 6 7 8 9 10 11 12 13 14 15 16 17 18 19 20 21 22 23 24 25 26 27 28 29 30 31 32 33 34 35 36 37 38 39 40 41 42 43 44 45 46 47 48 49 50
000
AXUS43 KGID 241302
MISGRI

GID CWA HOURLY WEATHER ROUNDUP
NATIONAL WEATHER SERVICE HASTINGS NE
800 AM CDT FRI OCT 24 2014

NOTE: "FAIR" INDICATES FEW OR NO CLOUDS BELOW 12,000 FEET WITH NO
SIGNIFICANT WEATHER AND/OR OBSTRUCTIONS TO VISIBILITY.

...SOUTH CENTRAL NEBRASKA...

CITY           SKY/WX    TMP DP  RH WIND       PRES   REMARKS
GRAND ISLAND   MOCLDY    57  53  86 SW12      29.93F FOG
HASTINGS       MOCLDY    55  52  89 SW9       29.94F
KEARNEY        CLOUDY    54  50  87 SW8       29.96S
ORD            CLOUDY    48  46  93 SW3       29.91S
YORK           CLOUDY    57  55  94 SW10      29.93F FOG
AURORA         MOCLDY    55  55 100 SW10      29.93F FOG
LEXINGTON      CLOUDY    49  47  93 W5        29.97S
HOLDREGE       CLOUDY    55  51  89 CALM      29.97F
HEBRON         MOCLDY    57  55  91 SW8       29.97S FOG

...NEBRASKA PANHANDLE...

CITY           SKY/WX    TMP DP  RH WIND       PRES   REMARKS
CHADRON        CLOUDY    43  36  76 CALM      29.99R
ALLIANCE       CLOUDY    44  35  70 W8        30.02R
SCOTTSBLUFF    CLOUDY    49  37  63 N8        30.04R
SIDNEY         CLOUDY    49  35  58 W5        30.06R

...WESTERN AND NORTH CENTRAL NEBRASKA...

CITY           SKY/WX    TMP DP  RH WIND       PRES   REMARKS
VALENTINE      CLOUDY    40  36  86 SW7       29.93R
AINSWORTH      CLOUDY    47  37  67 W3        29.92R
ONEILL         CLOUDY    48  45  89 SW5       29.90S
BROKEN BOW     CLOUDY    54  44  69 SW3       29.93S
IMPERIAL       MOCLDY    50  37  61 W5        30.02R
NORTH PLATTE   CLOUDY    40  37  89 NW6       29.98S
MCCOOK         CLOUDY    49  46  90 W8        30.00S

...EASTERN NEBRASKA...

CITY           SKY/WX    TMP DP  RH WIND       PRES   REMARKS
NORFOLK        CLOUDY    54  52  93 VRB3      29.89S FOG
SO SIOUX CITY  CLOUDY    54  53  97 S5        29.88S FOG
TEKAMAH        CLOUDY    59  56  89 S9        29.90S
COLUMBUS       CLOUDY    57  52  82 SW6       29.92S
ALBION         CLOUDY    53  50  92 CALM      29.91S FOG
OMAHA EPPLEY   FOG       58  56  93 S13       29.93F VSB 1
OFFUTT AFB     CLOUDY    58  58 100 S12       29.93F
MILLARD        MOCLDY    57  56  94 S6        29.93F FOG
LINCOLN        CLOUDY    59  57  93 S7        29.94F FOG
NEBRASKA CITY    N/A     58  58 100 S10       29.97S FOG
BEATRICE         N/A     57  56  97 S8        29.97S FOG
FALLS CITY     PTCLDY    58  56  93 S9        29.99F FOG

...NORTHERN KANSAS...

CITY           SKY/WX    TMP DP  RH WIND       PRES   REMARKS
GOODLAND       MOCLDY    50  42  74 W10       30.07S
HILL CITY      MOCLDY    51  50  96 W6        30.00F FOG
NORTON         SUNNY     50  48  93 W7        29.98S
PHILLIPSBURG   FOG       48  48 100 CALM      29.99S VSB 1/4
SMITH CENTER   FOG       48  48 100 S3        29.99F VSB 0
BELOIT         CLOUDY    52  52 100 SE3       29.98F VSB 0
HAYS           PTCLDY    54  48  82 S3        30.01F
RUSSELL        CLEAR     56  55  97 S10       30.00S FOG
CONCORDIA      CLEAR     57  57 100 S6        29.99S FOG
SALINA         CLEAR     58  56  93 S7        30.02S FOG
TOPEKA         MOCLDY    59  58  96 S5        30.03S FOG



USA.gov is the U.S. government's official web portal to all federal, state and local government web resources and services.